Regional Weather Roundup
Issued by NWS

Home | Current Version | Previous Version | Graphics & Text | Print | Product List | Glossary On
Versions: 1 2 3 4 5 6 7 8 9 10 11 12 13 14 15 16 17 18 19 20 21 22 23 24 25 26 27 28 29 30 31 32 33 34 35 36 37 38 39 40 41 42 43 44 45 46 47 48 49 50
000
ASUS43 KLOT 241600
RWRIL

ILLINOIS REGIONAL WEATHER ROUNDUP
NATIONAL WEATHER SERVICE CHICAGO/ROMEOVILLE IL
1000 AM CST MON NOV 24 2014

NOTE: "FAIR" INDICATES FEW OR NO CLOUDS BELOW 12,000 FEET WITH NO
SIGNIFICANT WEATHER AND/OR OBSTRUCTIONS TO VISIBILITY.

* THESE STATIONS ARE NOT UNDER NWS QUALITY CONTROL. THEY ALSO MAY NOT
  REPORT WEATHER SUCH AS PRECIPITATION OR FOG.

ILZ001-002-007-009-015-016-024-241700-
NORTHWEST ILLINOIS

CITY           SKY/WX    TMP DP  RH WIND       PRES   REMARKS
MOLINE         LGT SNOW  30  26  85 W22       29.41R FOG     WCI  17
STERLING*      CLOUDY   N/A N/A N/A W26       29.34R VSB 3/4
$$

ILZ003-004-008-010-011-017-018-241700-
NORTH CENTRAL ILLINOIS

CITY           SKY/WX    TMP DP  RH WIND       PRES   REMARKS
ROCKFORD       SNOW      33  31  92 W20G25    29.26R VSB 1/2 WCI  21
$$

ILZ005-006-012>014-019>023-241700-
NORTHEAST ILLINOIS

CITY           SKY/WX    TMP DP  RH WIND       PRES   REMARKS
CHICAGO-OHARE  LGT RAIN  38  35  89 W22G35    29.19R WCI  27
CHICAGO-MIDWAY LGT RAIN  39  36  89 W22G33    29.22R WCI  29
AURORA         SNOW      34  30  85 W22G37    29.26R VSB 1/2 WCI  22
WAUKEGAN       LGT RAIN  41  40  96 W13G22    29.13R FOG
DUPAGE AIRPORT FLURRIES  36  33  89 W21G29    29.22R WCI  25
WHEELING       LGT RAIN  39  35  86 W21G26    29.19R FOG     WCI  29
NORTHERLY ISL    N/A     40  36  86 W16         N/A
$$

LMZ740>746-241700-
SOUTHERN LAKE MICHIGAN

STATION/POSITION SKY/WX   TEMP    WIND        PRES    VSBY  WAVE
                          AIR SEA DIR/SP/G                  HT/PER
                          (F)     (DEG/KT/KT) (MB)    (MI)  (FT/S)
SOUTHERN BUOY              44 42  230/  8/ 10  984.3S         1/ 3
WAUKEGAN HARBOR            42     260/ 17/ 28   N/A
HARRISON CRIB              43     250/ 28/ 35   N/A
BURNHAM HARBOR             41     270/ 14/ 17   N/A
CALUMET HARBOR             39     240/ 15/ 23  987.3R
MICHIGAN CITY              43     220/ 29/ 34   N/A
$$

ILZ025>027-034>036-040-047-049-050-058-095>099-241700-
WEST-CENTRAL ILLINOIS

CITY           SKY/WX    TMP DP  RH WIND       PRES   REMARKS
QUINCY         CLOUDY    31  24  75 W22G30    29.58R WCI  18
$$

ILZ028>032-037-038-041>044-048-051>054-059>061-241700-
CENTRAL ILLINOIS

CITY           SKY/WX    TMP DP  RH WIND       PRES   REMARKS
DECATUR        CLOUDY    36  31  82 W22G37    29.53R WCI  25
PEORIA         LGT SNOW  34  29  82 W18G28    29.47R VSB 1   WCI  23
SPRINGFIELD    CLOUDY    35  33  92 W20G39    29.55R WCI  24
TAYLORVILLE    NOT AVBL
$$

ILZ033-039-045-046-055>057-062-063-241700-
EAST-CENTRAL ILLINOIS

CITY           SKY/WX    TMP DP  RH WIND       PRES   REMARKS
CHAMPAIGN      FLURRIES  35  35 100 W30G40    29.49R WCI  22
MATTOON        CLOUDY    36  32  85 W16G25    29.54R WCI  26
$$

ILZ079-100>102-241700-
SOUTHWEST ILLINOIS

CITY           SKY/WX    TMP DP  RH WIND       PRES   REMARKS
ALTON          CLOUDY    37  28  70 W14G25    29.63R WCI  29
CAHOKIA*       CLOUDY    40  28  62 W17G33    29.66R
$$

ILZ064>066-069>071-074>076-080>082-084>086-088>090-092>094-241700-
SOUTH-CENTRAL ILLINOIS

CITY           SKY/WX    TMP DP  RH WIND       PRES   REMARKS
CARBONDALE     CLOUDY    44  34  67 W10       29.70R
MARION         CLOUDY    45  36  70 SW12      29.69R
MT. VERNON     PTSUNNY   45  30  57 W26G38    29.66R
$$

ILZ067-068-072-073-078-083-087-091-241700-
SOUTHEAST ILLINOIS

CITY           SKY/WX    TMP DP  RH WIND       PRES   REMARKS
LAWRENCEVILLE  CLOUDY    42  35  76 SW21G29   29.62R
$$

ABBREVIATIONS USED IN REMARKS
   TC - TEMPERATURE IN CELSIUS
  WCI - WIND CHILL INDEX
   HX - HEAT INDEX
  VSB - VISIBILITY
$$




USA.gov is the U.S. government's official web portal to all federal, state and local government web resources and services.